Tuesday, June 19, 2018, 12:54 AM EDT
Back to Local

KACK, Nantucket Memorial Airport

Location: Nantucket, MA, United States Lat: 41.25
Local Time: 12:54 AM EDT ( 4:54 GMT) Lon: -70.067
Time Zone: US/Eastern Elev: 49 ft

Show me the last for .
Show Decoded

2018-06-19 00:41 METAR KACK 190441Z AUTO 22013KT 1/4SM R24/2200V2400FT FG VV002 17/17 A2975 RMK
                 AO2 RAE03 P0000 T01720167 =
2018-06-19 00:06 METAR KACK 190406Z AUTO 23012KT 3/4SM R24/4000V4500FT BR VV002 17/17 A2977 RMK
                 AO2 RAE03 P0000 T01720167 =
2018-06-18 23:53 METAR KACK 190353Z AUTO 23014KT 1SM R24/5000V6000FT -RA BR VV002 17/17 A2978 RMK
                 AO2 RAB08 SLP083 P0003 T01720172 =
2018-06-18 22:53 METAR KACK 190253Z AUTO 22016G23KT 1/2SM R24/2600V3000FT FG VV002 17/17 A2980
                 RMK AO2 SLP092 T01720167 56018 =
2018-06-18 22:24 METAR KACK 190224Z AUTO 21014KT 1/2SM R24/2400V2600FT FG VV002 17/17 A2982 RMK
                 AO2 T01720167 =
2018-06-18 22:13 METAR KACK 190213Z AUTO 21015KT 1/4SM R24/2200V2600FT FG VV002 17/17 A2983 RMK
                 AO2 T01720167 =
2018-06-18 21:53 METAR KACK 190153Z 21015KT 1/4SM R24/2000V2200FT FG VV002 17/17 A2983 RMK AO2
                 SLP100 T01720172 =
2018-06-18 20:53 METAR KACK 190053Z 21017KT 1/4SM R24/1800FT FG VV002 17/17 A2981 RMK AO2 SLP095
                 T01720167 =
2018-06-18 19:53 METAR KACK 182353Z 22013KT 1/4SM R24/1800FT FG VV002 17/17 A2986 RMK AO2 SLP110
                 T01720167 10189 20172 55014 =
2018-06-18 19:30 METAR KACK 182330Z 21013KT 1/4SM R24/1800FT FG VV002 17/17 A2985 RMK AO2
                 T01720167 =
2018-06-18 19:17 METAR KACK 182317Z 21014KT 1/4SM R24/2000V5500FT FG VV002 17/17 A2985 RMK AO2
                 T01720167 =
2018-06-18 18:53 METAR KACK 182253Z 20015KT 6SM BR OVC002 17/17 A2984 RMK AO2 SLP106 T01720167 =
2018-06-18 17:53 METAR KACK 182153Z 21016KT 10SM OVC003 18/17 A2986 RMK AO2 SLP112 T01830172 =
2018-06-18 16:53 METAR KACK 182053Z 21013KT 10SM FEW006 18/17 A2990 RMK AO2 SLP124 T01830172
                 56027 =
2018-06-18 15:53 METAR KACK 181953Z 21014KT 10SM FEW006 18/17 A2992 RMK AO2 SLP131 T01830167 =
2018-06-18 15:31 METAR KACK 181931Z 21012KT 10SM BKN006 19/17 A2993 RMK AO2 T01890167 =
2018-06-18 14:53 METAR KACK 181853Z 21012KT 10SM SCT006 18/17 A2994 RMK AO2 SLP138 T01830167 =
2018-06-18 14:26 METAR KACK 181826Z 21011KT 10SM BKN006 18/17 A2996 RMK AO2 T01830167 =
2018-06-18 14:15 METAR KACK 181815Z 21011KT 10SM SCT007 19/17 A2997 RMK AO2 T01890167 =
2018-06-18 13:53 METAR KACK 181753Z 21010KT 10SM CLR 18/16 A2998 RMK AO2 SLP151 T01830161 10206
                 20172 58013 =
2018-06-18 12:53 METAR KACK 181653Z 21012KT 10SM CLR 19/16 A2999 RMK AO2 SLP155 T01940161 =
2018-06-18 11:53 METAR KACK 181553Z 21014G19KT 10SM CLR 20/16 A3000 RMK AO2 SLP160 T02000161 =
2018-06-18 10:53 METAR KACK 181453Z 21009KT 10SM CLR 19/16 A3002 RMK AO2 SLP164 T01890161 58014 =
2018-06-18 09:53 METAR KACK 181353Z 23011KT 10SM CLR 19/16 A3003 RMK AO2 SLP170 T01890161 =
2018-06-18 08:53 METAR KACK 181253Z 21011KT 10SM CLR 18/16 A3004 RMK AO2 SLP172 T01780156 =
2018-06-18 07:53 METAR KACK 181153Z 22010KT 10SM CLR 17/16 A3006 RMK AO2 SLP178 T01720156 10172
                 20156 58003 =
2018-06-18 06:53 METAR KACK 181053Z 21009KT 10SM CLR 17/16 A3006 RMK AO2 SLP180 T01720156 =
2018-06-18 05:53 METAR KACK 180953Z 23007KT 10SM CLR 16/16 A3008 RMK AO2 SLP184 T01610156 =
2018-06-18 04:53 METAR KACK 180853Z AUTO 23007KT 10SM CLR 16/15 A3007 RMK AO2 SLP181 T01560150
                 58005 =
2018-06-18 03:53 METAR KACK 180753Z AUTO 22008KT 10SM CLR 16/15 A3008 RMK AO2 SLP184 T01560150 =
2018-06-18 02:53 METAR KACK 180653Z AUTO 23008KT 10SM CLR 16/15 A3008 RMK AO2 SLP185 T01610150 =
2018-06-18 01:53 METAR KACK 180553Z AUTO 23008KT 10SM CLR 16/15 A3008 RMK AO2 SLP186 T01560150
                 10167 20150 56005 =

Support USWX by starting your Amazon purchase here.